{"data":{"norad_id":62775,"epoch":"2026-05-25T04:45:08.457120Z","epoch_age_seconds":68588,"freshness":"FRESH","line1":"1 62775U 25015T   26145.19801455  .00029297  00000+0  87493-3 0  9993","line2":"2 62775  53.1595 326.4638 0001231  65.0333 295.0798 15.34397229 76149","mean_motion":15.34397229,"eccentricity":0.0001231,"inclination_deg":53.1595,"raan_deg":326.4638,"arg_perigee_deg":65.0333,"mean_anomaly_deg":295.0798,"bstar":0.00087493,"rev_number":7614,"period_min":93.847927562961,"perigee_km":461.86936776804,"apogee_km":463.55358466288,"semimajor_km":6840.8484762155,"source":"CELESTRAK","updated_at":"2026-05-25T13:38:19.746892Z"}}